Simultaneous Nadir Overpasses (SNOs) Predictions

Prediction of SNOs between GOES-15 and METOP-A Satellite Orbit:

Table of predicted SNOs for the next 14.0 days since TLE Epoch: 1/1/2016
Index Date Time (GOES-15) GOES-15 Lat,Lon METOP-A Lat,Lon Distance(km) Time Diff (sec)
1 01/03/2016 06:32:08 0.05,-134.44 -0.19,-135.50 120.81 80
2 01/04/2016 06:08:50 0.06,-134.39 0.96,-130.52 442.42 80
3 01/05/2016 18:27:42 -0.05,-134.35 0.08,-135.07 82.09 80
4 01/06/2016 18:09:43 -0.06,-134.29 -1.00,-130.07 481.23 80
5 01/08/2016 06:28:42 0.04,-134.17 -0.08,-134.65 54.60 80
6 01/10/2016 18:26:55 -0.04,-134.05 0.03,-134.21 18.70 80
7 01/13/2016 06:22:36 0.03,-133.86 0.04,-133.80 7.56 80




NCC Satellite Simultaneous Nadir Overpasses (SNOs) Prediction Service
